Hourly Data Report for May 14, 2012

All times are specified in Local Standard Time (LST). Add 1 hour to adjust for Daylight Saving Time where and when it is observed.

SAULT STE MARIE A
ONTARIO

46°29'06.000" N
84°30'35.000" W
192.00 m
6057591
71260
YAM

Download Data

Hourly Data (May 2012)
Hourly Data Report for May 14, 2012
Temp Definition
°C
Dew Point Temp Definition
°C
Rel Hum Definition
%
Wind Dir Definition
10's deg

Wind Spd Definition
km/h
Visibility Definition
km
Stn Press Definition
kPa
Hmdx Definition


Wind Chill Definition


Weather Definition


TIME
00:00 Legend Double Dagger 6.5 0.6 66   0 10.0 99.43     LegendNANA
01:00 Legend Double Dagger 6.2 0.8 68 10 6 10.0 99.41     Mainly Clear
02:00 Legend Double Dagger 4.7 0.3 73 9 8 10.0 99.37     LegendNANA
03:00 Legend Double Dagger 3.6 0.3 79 9 5 10.0 99.35     LegendNANA
04:00 Legend Double Dagger 4.4 0.9 78 10 6 10.0 99.32     Mainly Clear
05:00 Legend Double Dagger 5.2 1.3 76 13 10 10.0 99.31     LegendNANA
06:00 Legend Double Dagger 5.3 1.8 78 9 6 10.0 99.32     LegendNANA
07:00 Legend Double Dagger 9.3 3.5 67 10 7 10.0 99.32     Mainly Clear
08:00 Legend Double Dagger 12.4 4.7 59 9 7 10.0 99.30     LegendNANA
09:00 Legend Double Dagger 16.2 5.6 49 8 12 10.0 99.24     LegendNANA
10:00 Legend Double Dagger 20.3 5.3 37 18 12 10.0 99.20     Mainly Clear
11:00 Legend Double Dagger 22.2 4.9 32 20 19 10.0 99.15     LegendNANA
12:00 Legend Double Dagger 23.1 4.3 29 20 19 10.0 99.11     LegendNANA
13:00 Legend Double Dagger 23.5 4.2 28 21 20 10.0 99.07     Mainly Clear
14:00 Legend Double Dagger 24.2 4.8 28 20 19 10.0 99.03     LegendNANA
15:00 Legend Double Dagger 24.5 4.5 27 21 18 10.0 99.01     LegendNANA
16:00 Legend Double Dagger 21.1 5.2 35 29 19 10.0 99.01     Mainly Clear
17:00 Legend Double Dagger 21.6 4.4 32 28 11 10.0 99.00     LegendNANA
18:00 Legend Double Dagger 21.9 4.2 31 23 27 10.0 99.01     LegendNANA
19:00 Legend Double Dagger 20.5 4.7 35 24 24 10.0 99.01     Mainly Clear
20:00 Legend Double Dagger 16.4 6.6 52 26 6 10.0 99.03     LegendNANA
21:00 Legend Double Dagger 13.7 5.4 57 23 4 10.0 99.06     LegendNANA
22:00 Legend Double Dagger 15.2 5.2 51 24 15 10.0 99.05     Mainly Clear
23:00 Legend Double Dagger 13.9 4.8 54 19 8 10.0 99.01     LegendNANA

Notes on Data Quality.

Legend

  • E = Estimated
  • M = Missing
  • NA = Not Available
  • ‡ = Partner data that is not subject to review by the National Climate Archives
Date modified: